This is the latest recevied weather packets stored in our database for station/object SQ9NFI-4. If no packets are shown the sender has not sent any weather packets the latest 10 day(s).
| Time | Temp. | Humidity | Pressure | Rain* | Wind** | Luminosity | Snow |
|---|---|---|---|---|---|---|---|
| 1777553116 | 14.44° C | 21% | 1028.5 hPa | 0 mm | - | 572 W/m² | - |
| 1777552816 | 14.44° C | 21% | 1028.5 hPa | 0 mm | - | 583 W/m² | - |
| 1777552516 | 13.89° C | 26% | 1028.5 hPa | 0 mm | - | 586 W/m² | - |
| 1777552216 | 13.89° C | 23% | 1028.5 hPa | 0 mm | - | 594 W/m² | - |
| 1777551916 | 14.44° C | 24% | 1028.5 hPa | 0 mm | - | 600 W/m² | - |
| 1777551616 | 14.44° C | 24% | 1028.5 hPa | 0 mm | - | 611 W/m² | - |
| 1777551316 | 14.44° C | 26% | 1028.5 hPa | 0 mm | - | 609 W/m² | - |
| 1777551016 | 14.44° C | 25% | 1028.5 hPa | 0 mm | - | 614 W/m² | - |
| 1777550716 | 14.44° C | 27% | 1028.5 hPa | 0 mm | - | 634 W/m² | - |
| 1777550416 | 14.44° C | 25% | 1028.8 hPa | 0 mm | - | 651 W/m² | - |
| 1777550116 | 14.44° C | 25% | 1028.8 hPa | 0 mm | - | 651 W/m² | - |
| 1777549816 | 13.33° C | 23% | 1029.1 hPa | 0 mm | - | 640 W/m² | - |
| 1777549516 | 14.44° C | 26% | 1029.1 hPa | 0 mm | - | 648 W/m² | - |
| 1777549216 | 13.89° C | 23% | 1029.1 hPa | 0 mm | - | 663 W/m² | - |
| 1777548916 | 13.89° C | 24% | 1028.8 hPa | 0 mm | - | 646 W/m² | - |
| 1777548616 | 13.33° C | 25% | 1028.8 hPa | 0 mm | - | 646 W/m² | - |
| 1777548316 | 13.89° C | 25% | 1028.8 hPa | 0 mm | - | 646 W/m² | - |
| 1777548016 | 13.33° C | 24% | 1028.8 hPa | 0 mm | - | 683 W/m² | - |
| 1777547716 | 13.33° C | 26% | 1028.8 hPa | 0 mm | - | 685 W/m² | - |
| 1777547416 | 13.33° C | 26% | 1029.1 hPa | 0 mm | - | 685 W/m² | - |
| 1777547116 | 13.33° C | 26% | 1029.1 hPa | 0 mm | - | 680 W/m² | - |
| 1777546816 | 12.78° C | 25% | 1029.5 hPa | 0 mm | - | 691 W/m² | - |
| 1777546516 | 13.33° C | 26% | 1029.5 hPa | 0 mm | - | 691 W/m² | - |
| 1777546216 | 13.33° C | 26% | 1029.5 hPa | 0 mm | - | 697 W/m² | - |
| 1777545916 | 13.33° C | 29% | 1029.5 hPa | 0 mm | - | 697 W/m² | - |
* Rain latest hour (hover to see other rain measurements)
** Current wind speed in m/s (hover to see current wind gust speed)